Location: La Silve
(44.2414°N, 5.8889°E)
Time: 12:16:45
(UTC+00:00)

CZ-2C R/B - Pass Details

Date: 01 December 2020
Orbit: 705 x 907 km, 98.1° (Epoch: 25 January)

Event Time Altitude Azimuth Distance (km) Brightness Sun altitude
Rises 18:53:37 0° 189° (S) 3,235 6.4 -30.6°
Reaches altitude 10° 18:56:10 10° 199° (SSW) 2,282 5.6 -31.1°
Maximum altitude 19:00:40 34° 263° (W) 1,208 4.4 -31.9°
Drops below altitude 10° 19:05:04 10° 328° (NNW) 2,212 5.7 -32.7°
Sets 19:07:30 0° 338° (NNW) 3,122 6.4 -33.1°
